KF8LO-1 Weather Reports


time (UTC)temp
C
wind
direction
speed
KPH
gust
KPH
rain 1hr
cm
rain 24hr
cm
rain mn
cm
humidity
%
barometer
mb
20260503220212 10 306 4.8 14.5 0.00 0.00 0.00 38
20260503215712 10 300 4.8 20.9 0.00 0.00 0.00 37
20260503215212 10 296 8.0 25.7 0.00 0.00 0.00 37
20260503214712 10 307 8.0 20.9 0.00 0.00 0.00 36
20260503214212 10 272 9.7 12.9 0.00 0.00 0.00 38
20260503213712 10 306 8.0 19.3 0.00 0.00 0.00 38
20260503213212 10 322 8.0 19.3 0.00 0.00 0.00 37
20260503212712 10 319 6.4 16.1 0.00 0.00 0.00 39
20260503212212 10 337 6.4 16.1 0.00 0.00 0.00 39
20260503211712 10 324 6.4 17.7 0.00 0.00 0.00 39
20260503211212 10 255 12.9 20.9 0.00 0.00 0.00 37
20260503210712 10 307 14.5 20.9 0.00 0.00 0.00 38
20260503210212 10 253 4.8 19.3 0.00 0.00 0.00 39
20260503205712 10 303 11.3 22.5 0.00 0.00 0.00 40
20260503205212 10 223 8.0 19.3 0.00 0.00 0.00 39
20260503204712 10 278 14.5 19.3 0.00 0.00 0.00 40
20260503204212 10 274 8.0 20.9 0.00 0.00 0.00 39
20260503203712 10 250 9.7 22.5 0.00 0.00 0.00 39
20260503203212 10 240 12.9 17.7 0.00 0.00 0.00 40
20260503202712 9 272 14.5 19.3 0.00 0.00 0.00 41
20260503202212 9 303 6.4 27.4 0.00 0.00 0.00 38
20260503201712 9 322 16.1 24.1 0.00 0.00 0.00 43
20260503201212 9 296 16.1 19.3 0.00 0.00 0.00 40
20260503200712 9 306 9.7 24.1 0.00 0.00 0.00 43
20260503200212 9 296 9.7 22.5 0.00 0.00 0.00 40
20260503195712 8 271 12.9 24.1 0.00 0.00 0.00 41
20260503195212 8 302 14.5 29.0 0.00 0.00 0.00 40
20260503194712 9 288 11.3 24.1 0.00 0.00 0.00 40
20260503194212 9 313 9.7 29.0 0.00 0.00 0.00 39
20260503193712 9 331 16.1 19.3 0.00 0.00 0.00 43
20260503193212 8 289 1.6 17.7 0.00 0.00 0.00 44
20260503192712 8 265 9.7 19.3 0.00 0.00 0.00 44
20260503192212 8 299 14.5 27.4 0.00 0.00 0.00 42
20260503191712 8 268 8.0 17.7 0.00 0.00 0.00 47
20260503191212 8 324 12.9 14.5 0.00 0.00 0.00 44
20260503190712 8 293 9.7 20.9 0.00 0.00 0.00 43
20260503190212 8 299 11.3 24.1 0.00 0.00 0.00 42
20260503185712 8 357 12.9 19.3 0.00 0.00 0.00 41
20260503185212 8 358 6.4 14.5 0.00 0.00 0.00 44
20260503184713 8 246 12.9 14.5 0.00 0.00 0.00 46
20260503184213 7 322 8.0 22.5 0.00 0.00 0.00 45
20260503183713 7 289 17.7 22.5 0.00 0.00 0.00 47
20260503183213 7 341 20.9 25.7 0.00 0.00 0.00 42
20260503182713 7 291 16.1 25.7 0.00 0.00 0.00 42
20260503182213 7 310 8.0 19.3 0.00 0.00 0.00 47
20260503181713 7 309 9.7 17.7 0.00 0.00 0.00 45
20260503181213 7 270 9.7 16.1 0.00 0.00 0.00 46
20260503180713 7 14 9.7 24.1 0.00 0.00 0.00 45
20260503180213 7 340 11.3 29.0 0.00 0.00 0.00 46
20260503175713 7 326 6.4 19.3 0.00 0.00 0.00 44
20260503175213 7 344 6.4 16.1 0.00 0.00 0.00 49
20260503174713 7 285 9.7 19.3 0.00 0.00 0.00 50
20260503174213 7 337 14.5 24.1 0.00 0.00 0.00 47
20260503173713 6 309 8.0 16.1 0.00 0.00 0.00 47
20260503173213 6 60 11.3 20.9 0.00 0.00 0.00 43
20260503172713 6 350 12.9 20.9 0.00 0.00 0.00 51
20260503172213 6 293 9.7 24.1 0.00 0.00 0.00 49
20260503171713 6 15 3.2 17.7 0.00 0.00 0.00 49
20260503171213 6 319 12.9 20.9 0.00 0.00 0.00 51
20260503170713 6 317 12.9 20.9 0.00 0.00 0.00 50
20260503170213 6 262 6.4 16.1 0.00 0.00 0.00 49
20260503160213 5 295 14.5 25.7 0.00 0.00 0.00 52
20260503150713 3 316 12.9 27.4 0.00 0.00 0.00 55
20260503150213 3 343 11.3 20.9 0.00 0.00 0.00 56
20260503140213 2 274 9.7 24.1 0.00 0.00 0.00 64
20260503131213 1 306 14.5 20.9 0.00 0.00 0.00 73
20260503130714 1 322 8.0 20.9 0.00 0.00 0.00 72
20260503130214 1 300 3.2 17.7 0.00 0.00 0.00 76
20260503120214 0 282 6.4 16.1 0.00 0.00 0.00 90
20260503110714 0 286 9.7 19.3 0.00 0.00 0.00 93
20260503110214 0 268 4.8 14.5 0.00 0.00 0.00 93
20260503100214 0 320 8.0 12.9 0.00 0.00 0.00 94
20260503090215 0 296 6.4 16.1 0.00 0.00 0.00 94
20260503081214 0 329 9.7 14.5 0.00 0.00 0.00 93
20260503080714 0 307 8.0 16.1 0.00 0.00 0.00 94
20260503080214 0 296 8.0 17.7 0.00 0.00 0.00 95
20260503072715 0 306 8.0 20.9 0.00 0.00 0.00 93
20260503072215 0 296 8.0 12.9 0.00 0.00 0.00 92
20260503071715 0 320 8.0 12.9 0.00 0.00 0.00 91
20260503071215 0 274 9.7 16.1 0.00 0.00 0.00 91
20260503070715 0 289 6.4 12.9 0.00 0.00 0.00 91
20260503070215 0 277 3.2 14.5 0.00 0.00 0.00 90
20260503060215 0 288 8.0 11.3 0.00 0.00 0.00 88
20260503054715 0 338 11.3 17.7 0.00 0.00 0.00 88
20260503054215 0 312 6.4 14.5 0.00 0.00 0.00 87
20260503053715 0 299 9.7 16.1 0.00 0.00 0.00 87
20260503053215 0 312 6.4 14.5 0.00 0.00 0.00 86
20260503052715 0 313 4.8 16.1 0.00 0.00 0.00 86
20260503052215 0 307 6.4 11.3 0.00 0.00 0.00 85
20260503051715 0 288 3.2 12.9 0.00 0.00 0.00 86
20260503051215 0 319 6.4 12.9 0.00 0.00 0.00 87
20260503050715 0 320 4.8 14.5 0.00 0.00 0.00 87
20260503050215 0 313 6.4 11.3 0.00 0.00 0.00 87
20260503045715 0 330 4.8 11.3 0.00 0.00 0.00 87
20260503045215 0 322 3.2 6.4 0.00 0.00 0.00 85
20260503044715 1 274 0.0 6.4 0.00 0.00 0.00 85
20260503044215 0 350 4.8 12.9 0.00 0.00 0.00 87
20260503043715 0 358 8.0 16.1 0.00 0.00 0.00 87
20260503043215 1 320 9.7 14.5 0.00 0.00 0.00 86
20260503042715 1 315 6.4 11.3 0.00 0.00 0.00 84
20260503042215 1 326 9.7 14.5 0.00 0.00 0.00 85
20260503041715 1 312 8.0 17.7 0.00 0.00 0.00 85
20260503041215 1 312 8.0 17.7 0.00 0.00 0.00 83
20260503040715 1 319 11.3 12.9 0.00 0.00 0.00 82
20260503040215 1 357 6.4 12.9 0.00 0.00 0.00 82
20260503035715 1 295 8.0 12.9 0.00 0.00 0.00 82
20260503035215 1 312 6.4 12.9 0.00 0.00 0.00 82
20260503034715 1 336 9.7 17.7 0.00 0.00 0.00 81
20260503034215 1 323 9.7 12.9 0.00 0.00 0.00 80
20260503033715 1 315 8.0 11.3 0.00 0.00 0.00 80
20260503033215 1 345 6.4 14.5 0.00 0.00 0.00 80
20260503032716 1 289 4.8 16.1 0.00 0.00 0.00 80
20260503032215 1 324 4.8 9.7 0.00 0.00 0.00 79
20260503031715 1 324 4.8 17.7 0.00 0.00 0.00 79
20260503031215 1 322 16.1 16.1 0.00 0.00 0.00 78
20260503030715 1 334 6.4 14.5 0.00 0.00 0.00 78
20260503030215 1 324 9.7 17.7 0.00 0.00 0.00 78
20260503025715 1 327 6.4 17.7 0.00 0.00 0.00 77
20260503025215 1 12 6.4 12.9 0.00 0.00 0.00 76
20260503024715 1 358 11.3 19.3 0.00 0.00 0.00 77
20260503024215 1 336 12.9 25.7 0.00 0.00 0.00 76
20260503023715 2 4 19.3 19.3 0.00 0.00 0.00 76
20260503023216 2 322 9.7 16.1 0.00 0.00 0.00 74
20260503022715 2 343 4.8 20.9 0.00 0.00 0.00 75
20260503022215 2 305 17.7 20.9 0.00 0.00 0.00 74
20260503021716 2 305 6.4 17.7 0.00 0.00 0.00 73
20260503021216 2 330 6.4 12.9 0.00 0.00 0.00 73
20260503020716 2 316 8.0 16.1 0.00 0.00 0.00 73
20260503020216 2 338 8.0 16.1 0.00 0.00 0.00 72
20260503015716 2 322 8.0 16.1 0.00 0.00 0.00 72
20260503015216 2 317 8.0 19.3 0.00 0.00 0.00 72
20260503014716 2 310 6.4 22.5 0.00 0.00 0.00 71
20260503014216 2 330 14.5 17.7 0.00 0.00 0.00 70
20260503013716 2 344 16.1 25.7 0.00 0.00 0.00 69
20260503013216 2 320 12.9 17.7 0.00 0.00 0.00 69
20260503012716 2 324 14.5 24.1 0.00 0.00 0.00 68
20260503012216 3 323 4.8 16.1 0.00 0.00 0.00 67
20260503011716 3 334 11.3 16.1 0.00 0.00 0.00 66
20260503011216 3 307 9.7 11.3 0.00 0.00 0.00 65
20260503010716 3 329 9.7 19.3 0.00 0.00 0.00 64
20260503010216 3 323 6.4 16.1 0.00 0.00 0.00 63
20260503005716 3 303 4.8 17.7 0.00 0.00 0.00 63
20260503005216 3 355 11.3 19.3 0.00 0.00 0.00 62
20260503004716 3 303 11.3 14.5 0.00 0.00 0.00 61
20260503004216 3 306 9.7 19.3 0.00 0.00 0.00 61
20260503003716 3 315 3.2 16.1 0.00 0.00 0.00 60
20260503003216 3 338 8.0 17.7 0.00 0.00 0.00 59
20260503002716 3 341 14.5 27.4 0.00 0.00 0.00 58
20260503002216 3 355 8.0 22.5 0.00 0.00 0.00 57
20260503001716 4 305 11.3 17.7 0.00 0.00 0.00 56
20260503001216 4 293 14.5 16.1 0.00 0.00 0.00 56
20260503000716 4 323 9.7 11.3 0.00 0.00 0.00 55
20260503000218 4 317 8.0 17.7 0.00 0.00 0.00 54
20260502235716 5 298 12.9 16.1 0.00 0.00 0.00 54
20260502235216 5 331 6.4 22.5 0.00 0.00 0.00 54
20260502234716 5 334 8.0 20.9 0.00 0.00 0.00 54
20260502234216 5 305 9.7 22.5 0.00 0.00 0.00 53
20260502233716 5 291 3.2 20.9 0.00 0.00 0.00 54
20260502233216 5 299 8.0 20.9 0.00 0.00 0.00 53
20260502232716 5 324 6.4 16.1 0.00 0.00 0.00 53
20260502232216 5 292 11.3 14.5 0.00 0.00 0.00 53
20260502231716 5 277 8.0 20.9 0.00 0.00 0.00 53
20260502231216 5 284 9.7 17.7 0.00 0.00 0.00 52
20260502230716 5 284 4.8 17.7 0.00 0.00 0.00 52
20260502230216 5 299 9.7 24.1 0.00 0.00 0.00 51
20260502225716 5 307 14.5 20.9 0.00 0.00 0.00 51
20260502225216 5 306 14.5 22.5 0.00 0.00 0.00 51
20260502224716 5 303 8.0 25.7 0.00 0.00 0.00 50
20260502224216 5 330 9.7 22.5 0.00 0.00 0.00 50
20260502223307 6 322 14.5 17.7 0.00 0.05 0.00 51
20260502222807 6 236 4.8 17.7 0.00 0.05 0.00 51
20260502222307 6 299 9.7 29.0 0.00 0.05 0.00 50
20260502221807 6 285 1.6 16.1 0.00 0.05 0.00 51
20260502221307 6 299 8.0 12.9 0.00 0.05 0.00 51
20260502220807 6 317 4.8 17.7 0.00 0.05 0.00 52